Flag for Canada Weather past 2 weeks in Clarington, Ontario, Canada

Now
54 °F

Fog.


Feels Like: 53 °F
Forecast: 57 / 69 °F
Wind: 3 mph from Southwest

Location: Peterborough Airport

Current Time: Jul 30, 2014 at 6:00:34 AM

Latest Report: Jul 30, 2014 at 5:03 AM


Visibility: 5 mi

Pressure: 29.93 "Hg

Humidity: 94%

Dew point: 52 °F

Location of ClaringtonLocation

Historic Weather in Clarington — Graph

°F

Clarington temperature yesterday

Maximum temperature yesterday: 70 °F (at 2:00 PM)
Minimum temperature yesterday: 52 °F (at 6:00 AM)
Average temperature yesterday: 62 °F

Past Weeks' High & Low Weather Summary

 TemperatureHumidityPressure
High82 °F (Jul 22, 12:00 PM)100% (Jul 17, 1:00 AM)30.25 "Hg (Jul 17, 1:00 AM)
Low45 °F (Jul 17, 6:00 AM)36% (Jul 18, 2:00 PM)29.63 "Hg (Jul 27, 5:00 PM)
Average64 °F78%29.95 "Hg
* Reported Jul 15 5:00 AM — Jul 30 5:03 AM, Clarington, Weather by CustomWeather, © 2014

Note: Actual official high and low records may vary slightly from our data, if they occured in-between our weather recording intervals... More about our weather records

Advertising

Clarington weather history for previous 24 hours

 ConditionsComfort  
Time TempWeatherWind HumidityBarometerVisibility
5:03 AM
Jul 30
54 °FFog.3 mph94%29.93 "Hg5 mi
4:00 AM55 °FFog.2 mph94%29.93 "Hg1 mi
3:59 AM55 °FFog.2 mph94%29.93 "Hg1 mi
3:00 AM57 °FOvercast.2 mph94%29.93 "Hg9 mi
2:00 AM57 °FOvercast.3 mph94%29.93 "Hg9 mi
1:00 AM57 °FOvercast.5 mph94%29.95 "Hg9 mi
12:00 AM57 °FMostly cloudy.3 mph94%29.95 "Hg9 mi
11:04 PM
Jul 29
59 °FMostly cloudy.5 mph88%29.95 "Hg9 mi
10:00 PM61 °FOvercast.2 mph83%29.96 "Hg9 mi
9:00 PM61 °FLight rain. More clouds than sun.2 mph88%29.95 "Hg9 mi
8:45 PM61 °FLight rain. Overcast.3 mph83%29.95 "Hg9 mi
8:00 PM63 °FMostly cloudy.3 mph73%29.95 "Hg9 mi
7:00 PM64 °FOvercast.3 mph68%29.94 "Hg9 mi
6:00 PM66 °FMostly cloudy.5 mph64%29.93 "Hg9 mi
5:00 PM68 °FScattered clouds.7 mph56%29.91 "Hg9 mi
4:00 PM70 °FPassing clouds.8 mph50%29.91 "Hg9 mi
3:00 PM68 °FMostly cloudy.13 mph60%29.91 "Hg9 mi
2:00 PM70 °FPartly sunny.6 mph50%29.91 "Hg9 mi
1:00 PM68 °FPartly sunny.6 mph53%29.91 "Hg9 mi
12:00 PM68 °FPartly sunny.10 mph49%29.91 "Hg9 mi
11:00 AM68 °FPartly sunny.7 mph60%29.92 "Hg9 mi
10:00 AM64 °FScattered clouds.7 mph68%29.92 "Hg9 mi
9:00 AM61 °FOvercast.5 mph77%29.91 "Hg9 mi
8:00 AM57 °FOvercast.2 mph88%29.90 "Hg9 mi
7:00 AM54 °FPartly sunny.3 mph94%29.89 "Hg9 mi
6:00 AM52 °FClear.5 mph94%29.87 "Hg9 mi
Weather by CustomWeather, © 2014

See weather overviewHow to use our weather pages